Regional Weather Roundup
Issued by NWS

Home | Current Version | Previous Version | Text Only | Print | Product List | Glossary On
Versions: 1 2 3 4 5 6 7 8 9 10 11 12 13 14 15 16 17 18 19 20 21 22 23 24 25 26 27 28 29 30 31 32 33 34 35 36 37 38 39 40 41 42 43 44 45 46 47 48 49 50
000
ASUS43 KLMK 220910
RWRKY
KENTUCKY REGIONAL WEATHER ROUNDUP
NATIONAL WEATHER SERVICE LOUISVILLE KY
400 AM EST SUN JAN 22 2017

NOTE "FAIR" INDICATES FEW OR NO CLOUDS BELOW 12,000 FEET
WITH NO SIGNIFICANT WEATHER AND/OR OBSTRUCTIONS TO VISIBILITY.

KYZ001>023-026-027-061>063-070>075-221000-
WESTERN AND SOUTH CENTRAL KENTUCKY

CITY           SKY/WX    TMP DP  RH WIND       PRES   REMARKS
PADUCAH        CLOUDY    54  48  80 SE6       29.47S
HENDERSON      MOCLDY    52  45  76 E5        29.50S
OWENSBORO      CLOUDY    52  48  86 CALM      29.51F
HOPKINSVILLE   NOT AVBL
BOWLING GREEN  MOCLDY    50  48  93 CALM      29.52F
GLASGOW        CLOUDY    51  47  87 CALM      29.53R
$$

KYZ024-025-028>034-038-045-046-053-221000-
NORTH CENTRAL KENTUCKY

CITY           SKY/WX    TMP DP  RH WIND       PRES   REMARKS
LOUISVILLE/SDF CLEAR     48  45  89 CALM      29.53F
LOUISVILLE/LOU CLEAR     48  44  86 CALM      29.55S
FORT KNOX      MOCLDY    49  46  92 NE5       29.51F
$$

KYZ035>037-039>044-047>052-055>060-089>105-221000-
NORTHEAST KENTUCKY

CITY           SKY/WX    TMP DP  RH WIND       PRES   REMARKS
LEXINGTON      CLOUDY    48  45  89 E6        29.55F
COVINGTON      PTCLDY    50  48  93 E3        29.57F
FRANKFORT      PTCLDY    44  41  89 N3        29.55F FOG
$$

KYZ054-064>069-076>088-106>120-221000-
SOUTHEAST KENTUCKY

CITY           SKY/WX    TMP DP  RH WIND       PRES   REMARKS
JACKSON        CLEAR     51  49  92 CALM      29.56F
LONDON         FOG       46  44  93 S3        29.56F VSB 1/4
SOMERSET       CLOUDY    45  45 100 CALM      29.57R
MIDDLESBORO    FOG       43  43 100 CALM      29.60F VSB 1/4
MONTICELLO     CLOUDY    46  45  96 VRB3      29.57S
$$





USA.gov is the U.S. government's official web portal to all federal, state and local government web resources and services.